DW0630 Weather Reports


Display with metric or nautical units.
time (UTC)temp
F
wind
direction
speed
MPH
gust
MPH
rain 1hr
in
rain 24hr
in
rain mn
in
humidity
%
barometer
mb
20260510141512 56 49 18.0 29.0 0.00 0.00 0.00 68 1016.0
20260510134512 56 41 19.0 27.0 0.00 0.00 0.00 68 1016.1
20260510131511 58 51 19.0 28.0 0.00 0.00 0.00 66 1016.1
20260510124510 58 42 18.0 24.0 0.00 0.00 0.00 66 1016.2
20260510121510 58 40 17.0 23.0 0.00 0.00 0.00 68 1016.4
20260510120013 58 55 19.0 28.0 0.00 0.00 0.00 63 1016.4
20260510114512 59 62 16.0 24.0 0.00 0.00 0.00 67 1016.5
20260510113028 57 57 18.0 25.0 0.00 0.00 0.00 69 1016.6
20260510111519 57 47 16.0 22.0 0.00 0.00 0.00 68 1016.8
20260510104557 56 65 18.0 23.0 0.00 0.00 0.00 69 1016.9
20260510103026 56 57 16.0 23.0 0.00 0.00 0.00 69 1017.1
20260510101516 55 57 18.0 25.0 0.00 0.00 0.00 70 1017.1
20260510100032 56 39 17.0 24.0 0.00 0.00 0.00 70 1017.2
20260510094519 55 36 19.0 28.0 0.00 0.00 0.00 71 1017.3
20260510093053 55 62 19.0 28.0 0.00 0.00 0.00 70 1017.5
20260510091537 54 53 19.0 27.0 0.00 0.00 0.00 70 1017.6
20260510084556 55 61 17.0 25.0 0.00 0.00 0.00 70 1017.7
20260510083026 55 55 16.0 21.0 0.00 0.00 0.00 72 1017.7
20260510081512 54 54 19.0 29.0 0.00 0.00 0.00 71 1017.8
20260510074511 54 41 15.0 23.0 0.00 0.00 0.00 74 1017.7
20260510073012 52 40 17.0 23.0 0.00 0.00 0.00 76 1017.7
20260510071512 52 33 15.0 23.0 0.00 0.00 0.00 79 1017.7
20260510070041 51 44 18.0 28.0 0.00 0.00 0.00 79 1017.6
20260510064536 50 59 17.0 24.0 0.00 0.00 0.00 80 1017.4
20260510063033 49 58 17.0 25.0 0.00 0.00 0.00 82 1017.3
20260510061522 49 40 15.0 22.0 0.00 0.00 0.00 82 1017.1
20260510060018 49 34 14.0 19.0 0.00 0.00 0.00 83 1017.3
20260510054512 48 56 14.0 20.0 0.00 0.00 0.00 85 1017.2
20260510053013 47 63 10.0 15.0 0.00 0.00 0.00 87 1017.4
20260510051515 46 49 9.0 17.0 0.00 0.00 0.00 87 1017.5
20260510050028 46 56 6.0 12.0 0.00 0.00 0.00 86 1017.6
20260510044519 46 56 5.0 10.0 0.00 0.00 0.00 85 1017.6
20260510041512 46 44 8.0 13.0 0.00 0.00 0.00 83 1017.6
20260510040028 46 60 10.0 16.0 0.00 0.00 0.00 81 1017.6
20260510033024 47 51 10.0 14.0 0.00 0.00 0.00 76 1017.6
20260510031514 47 48 8.0 14.0 0.00 0.00 0.00 74 1017.6
20260510030013 48 73 10.0 16.0 0.00 0.00 0.00 74 1017.7
20260510024513 49 63 9.0 14.0 0.00 0.00 0.00 72 1017.7
20260510023014 49 62 10.0 15.0 0.00 0.00 0.00 71 1017.7
20260510021513 50 61 10.0 17.0 0.00 0.00 0.00 70 1017.6
20260510020014 50 60 13.0 20.0 0.00 0.00 0.00 69 1017.5
20260510013013 51 61 9.0 16.0 0.00 0.00 0.00 67 1017.3
20260510011511 51 55 11.0 16.0 0.00 0.00 0.00 67 1017.4
20260510010030 52 55 9.0 16.0 0.00 0.00 0.00 67 1017.4
20260510004517 52 53 10.0 14.0 0.00 0.00 0.00 68 1017.4
20260510003013 52 43 6.0 11.0 0.00 0.00 0.00 71 1017.4
20260510001513 53 51 8.0 13.0 0.00 0.00 0.00 71 1017.4
20260510000014 53 44 8.0 12.0 0.00 0.00 0.00 71 1017.4
20260509233025 53 50 7.0 11.0 0.00 0.00 0.00 70 1017.2
20260509231512 53 56 6.0 10.0 0.00 0.00 0.00 71 1017.1
20260509224511 53 77 4.0 9.0 0.00 0.00 0.00 72 1016.9
20260509221513 54 55 4.0 7.0 0.00 0.00 0.00 71 1016.6
20260509220017 54 45 3.0 4.0 0.00 0.00 0.00 70 1016.8
20260509211513 56 23 3.0 5.0 0.00 0.00 0.00 67 1016.5
20260509204512 57 32 5.0 8.0 0.00 0.00 0.00 65 1016.2
20260509203013 58 24 5.0 9.0 0.00 0.00 0.00 64 1016.1
20260509201512 59 35 6.0 8.0 0.00 0.00 0.00 63 1016.1
20260509200014 61 28 7.0 10.0 0.00 0.00 0.00 62 1016.0
20260509194512 62 24 7.0 11.0 0.00 0.00 0.00 60 1015.9
20260509191511 64 28 9.0 13.0 0.00 0.00 0.00 57 1015.7
20260509190026 64 30 9.0 13.0 0.00 0.00 0.00 57 1015.6
20260509184511 65 36 10.0 14.0 0.00 0.00 0.00 56 1015.6
20260509183014 65 48 8.0 13.0 0.00 0.00 0.00 57 1015.5
20260509181512 65 31 8.0 14.0 0.00 0.00 0.00 56 1015.4
20260509180015 66 32 10.0 13.0 0.00 0.00 0.00 55 1015.4
20260509174515 67 27 11.0 17.0 0.00 0.00 0.00 52 1015.3
20260509173012 68 44 13.0 18.0 0.00 0.00 0.00 52 1015.2
20260509170014 68 29 13.0 18.0 0.00 0.00 0.00 50 1015.4
20260509164513 69 74 13.0 16.0 0.00 0.00 0.00 51 1015.4
20260509163023 68 46 13.0 18.0 0.00 0.00 0.00 50 1015.3
20260509161512 69 67 13.0 17.0 0.00 0.00 0.00 49 1015.5
20260509160015 69 61 12.0 15.0 0.00 0.00 0.00 50 1015.5
20260509154512 69 53 11.0 16.0 0.00 0.00 0.00 49 1015.5
20260509153013 69 45 13.0 19.0 0.00 0.00 0.00 48 1015.7
20260509151514 69 54 10.0 16.0 0.00 0.00 0.00 49 1015.7
20260509150015 69 28 10.0 14.0 0.00 0.00 0.00 51 1015.8
20260509144513 69 61 11.0 18.0 0.00 0.00 0.00 53 1016.0
20260509143014 69 61 12.0 19.0 0.00 0.00 0.00 52 1016.0